Whiting Fld NAS, FL

2:22 PM CDT on April 25, 2017 (GMT -0500)
Whiting Field Naval Air Station (North)

Weather History for KNSE - January, 2014

Change the Weather History Date:

Saturday, January 18, 2014

  Actual Average Record
Temperature  
Mean Temperature 39 °F -  
Max Temperature 55 °F 59 °F 78 °F (2017)
Min Temperature 23 °F 40 °F 21 °F (1997)
Degree Days  
Heating Degree Days 26    
Moisture  
Dew Point 20 °F    
Average Humidity 49    
Maximum Humidity 78    
Minimum Humidity 16    
Precipitation  
Precipitation 0.00 in - - ()
Sea Level Pressure  
Sea Level Pressure 30.19 in    
Wind  
Wind Speed 5 mph (WSW)    
Max Wind Speed 13 mph    
Max Gust Speed -    
Visibility 10 miles    
Events      
Averages and records for this station are not official NWS values.
T = Trace of Precipitation, MM = Missing Value Source: NWS Daily Summary

Daily Weather History Graph

Daily Weather History Graph

Search for Another Location

Airport or City:

Trip Planner

Search our weather history database for the weather conditions in past years. The results will help you decide how hot, cold, wet, or windy it might be!

Date:

Astronomy

Jan. 18, 2014 Rise Set
Actual Time 6:45 AM CST 5:11 PM CST
Civil Twilight 6:19 AM CST 5:37 PM CST
Nautical Twilight 5:50 AM CST 6:07 PM CST
Astronomical Twilight 5:21 AM CST 6:36 PM CST
Moon 7:39 PM CST (1/18) 7:57 AM CST (1/18)
Length of Visible Light 11h 18m
Length of Day
10h 26m
Waning Gibbous, 94% of the Moon is Illuminated
Jan 18
Waning Gibbous
Jan 23
Last Quarter
Jan 30
New
Feb 6
First Quarter
Feb 14
Full

Hourly Weather History & Observations

Time (CST) Temp. Windchill Dew Point Humidity Pressure Visibility Wind Dir Wind Speed Gust Speed Precip Events Conditions
12:56 AM 33.1 °F 26.9 °F 16.0 °F 50% 30.20 in 10.0 mi NW 6.9 mph - N/A   Clear
1:56 AM 30.9 °F 25.2 °F 17.1 °F 57% 30.22 in 10.0 mi NW 5.8 mph - N/A   Unknown
2:56 AM 30.0 °F 26.5 °F 17.1 °F 59% 30.22 in 10.0 mi NNW 3.5 mph - N/A   Unknown
3:56 AM 28.0 °F 24.2 °F 17.1 °F 63% 30.23 in 10.0 mi NW 3.5 mph - N/A   Unknown
4:56 AM 25.0 °F - 17.1 °F 72% 30.24 in 10.0 mi Calm Calm - N/A   Clear
5:56 AM 24.1 °F 18.2 °F 17.1 °F 75% 30.25 in 10.0 mi NNW 4.6 mph - N/A   Unknown
6:56 AM 23.0 °F - 17.1 °F 78% 30.25 in 10.0 mi Calm Calm - N/A   Unknown
7:56 AM 33.1 °F - 24.1 °F 70% 30.26 in 10.0 mi Calm Calm - N/A   Clear
8:56 AM 41.0 °F - 15.1 °F 35% 30.29 in 10.0 mi Calm Calm - N/A   Clear
9:56 AM 46.0 °F 43.9 °F 8.1 °F 21% 30.30 in 10.0 mi Variable 4.6 mph - N/A   Clear
10:56 AM 46.9 °F - 7.0 °F 20% 30.27 in 10.0 mi Variable 4.6 mph - N/A   Clear
11:56 AM 51.1 °F - 9.0 °F 18% 30.22 in 10.0 mi NW 8.1 mph - N/A   Clear
12:56 PM 54.0 °F - 9.0 °F 17% 30.18 in 10.0 mi SW 8.1 mph - N/A   Clear
1:56 PM 55.0 °F - 9.0 °F 16% 30.15 in 10.0 mi WSW 8.1 mph - N/A   Clear
2:56 PM 54.0 °F - 15.1 °F 22% 30.15 in 10.0 mi WSW 9.2 mph - N/A   Clear
3:56 PM 51.1 °F - 21.0 °F 31% 30.15 in 10.0 mi South 12.7 mph - N/A   Clear
4:56 PM 46.9 °F - 25.0 °F 42% 30.14 in 10.0 mi South 9.2 mph - N/A   Clear
5:56 PM 41.0 °F 35.8 °F 25.0 °F 53% 30.14 in 10.0 mi SSW 8.1 mph - N/A   Clear
6:56 PM 42.1 °F 37.1 °F 25.0 °F 51% 30.12 in 10.0 mi South 8.1 mph - N/A   Clear
7:56 PM 39.9 °F 35.1 °F 27.0 °F 60% 30.12 in 10.0 mi SSW 6.9 mph - N/A   Clear
8:56 PM 42.1 °F 39.2 °F 30.0 °F 62% 30.11 in 10.0 mi SSW 4.6 mph - N/A   Clear
9:56 PM 44.1 °F 40.1 °F 34.0 °F 68% 30.11 in 10.0 mi SW 6.9 mph - N/A   Clear
10:56 PM 43.0 °F 38.8 °F 35.1 °F 74% 30.09 in 10.0 mi SW 6.9 mph - N/A   Clear
11:56 PM 45.0 °F 41.8 °F 37.0 °F 74% 30.08 in 10.0 mi West 5.8 mph - N/A   Clear